Regional Weather Roundup
Issued by NWS Wakefield, VA

Home | Current Version | Previous Version | Text Only | Print | Product List | Glossary Off
Versions: 1 2 3 4 5 6 7 8 9 10 11 12 13 14 15 16 17 18 19 20 21 22 23 24 25 26 27 28 29 30 31 32 33 34 35 36 37 38 39 40 41 42 43 44 45 46 47 48 49 50

000
ASUS41 KAKQ 271415
RWRAKQ

REGIONAL WEATHER ROUNDUP
NATIONAL WEATHER SERVICE WAKEFIELD VA
1000 AM EDT FRI MAY 27 2016

Note: "fair" indicates few or no clouds below 12,000 feet with no
significant weather and/or obstructions to visibility. * = Denotes
station may not report precipitation (e.g., rain,snow,etc.),
thunder or fog.

VAZ042-051-052>054-056-271500-
NORTHERN VIRGINIA

CITY           SKY/WX    TMP DP  RH WIND       PRES   REMARKS
WASH NATIONAL  PTSUNNY   77  67  71 S8        30.09S
DULLES         FAIR      80  66  62 CALM      30.09S
FORT BELVOIR   NOT AVBL
QUANTICO       FAIR      75  68  78 S9        30.10S
FREDERICKSBRG* FAIR      80  68  68 S5        30.08
STAFFORD*      FAIR      78  67  67 CALM      30.13S
WARRENTON      FAIR      81  63  53 CALM      30.09S
CULPEPER*      FAIR      80  69  68 CALM      30.10S
MANASSAS*      SUNNY     79  68  69 CALM      30.09S
LEESBURG*      FAIR      82  70  65 S9        30.10S
WINCHESTER     FAIR      79  66  65 S5        30.10S
FRONT ROYAL*   FAIR      79  68  69 S3        30.09F
LURAY*         FAIR      77  68  73 CALM      30.12S
$$

VAZ048-049-060>072-079>083-271500-
CENTRAL AND SOUTH CENTRAL VIRGINIA

CITY           SKY/WX    TMP DP  RH WIND       PRES   REMARKS
RICHMOND       FAIR      76  64  66 S7        30.12S
CHESTERFIELD*  FAIR      79  59  50 SW6       30.14S
PETERSBURG*    FAIR      79  64  60 SW6       30.13F
HANOVER        FAIR      77  64  64 S6        30.13R
TAPPAHANNOCK*  FAIR      80  64  59 SW8       30.12S
QUINTON*       FAIR      76  64  66 S6        30.12S
CHARLOTTSVILLE FAIR      79  67  66 VRB5      30.10S
GORDONSVILLE*  FAIR      78  68  72 S6        30.10S
ORANGE*        FAIR      79  68  69 SW6       30.11S
LOUISA*        FAIR      81  72  74 CALM      30.10S
BUMPASS*       FAIR      76  67  74 SW3       30.10F
FARMVILLE*     FAIR      77  67  69 S9        30.11S
CREWE*         FAIR      76  66  70 SW6       30.13S
FORT PICKETT*  NOT AVBL
CHASE CITY*    FAIR      76  62  62 CALM      30.14S
CLARKSVILLE*   FAIR      77  63  61 SW7       30.14S
SOUTH HILL*    FAIR      76  61  59 SW8       30.20S
LAWRENCEVILLE* FAIR      77  62  59 SW10      30.14F
EMPORIA*       FAIR     N/A N/A N/A S8        30.16S
$$

VAZ088>098-271500-
SOUTHEAST VIRGINIA

CITY           SKY/WX    TMP DP  RH WIND       PRES   REMARKS
NORFOLK        FAIR      79  61  53 SW14      30.14R
VIRGINIA BEACH FAIR      82  62  50 SW15      30.14R
NORFOLK NAVAL  FAIR      79  62  56 SW10G18   30.16R
WEST POINT*    FAIR      77  62  60 S8        30.14S
SALUDA*        FAIR      78  66  66 SW5       30.12S
NEWPORT NEWS   FAIR      78  63  59 SW13      30.14R
LANGLEY AFB    NOT AVBL
FORT EUSTIS    NOT AVBL
WILLIAMSBURG*  FAIR      79  64  61 S7        30.15S
HR EXEC AP*    FAIR      81  64  57 SW8       30.17R
FRANKLIN*      FAIR      77  64  64 SW5       30.16R
US460-WAKEFLD  FAIR      78  61  55 SW9       30.14R
$$

VAZ020-022-025-037-045-271500-
WEST CENTRAL AND SOUTHWEST VIRGINIA

CITY           SKY/WX    TMP DP  RH WIND       PRES   REMARKS
STAUNTON*      FAIR      73  66  77 CALM      30.15R
WAYNESBORO*    FAIR      77  62  59 CALM      30.14R
HOT SPRINGS VA FAIR      69  57  66 W3        30.24R
LYNCHBURG      FAIR      74  66  76 S7        30.14S
DANVILLE       FAIR      76  64  66 SW8       30.13F
SOUTH BOSTON*  FAIR      76  66  69 S6        30.13F
MARTINSVILLE   FAIR      73  65  75 SW6       30.17S
ROANOKE        FAIR      77  65  66 W6        30.16S
BLACKSBURG     FAIR      72  65  78 CALM      30.22S
DUBLIN*        FAIR      75  64  67 CALM      30.20S
MARION*        FAIR      74  61  63 CALM      30.23R
HILLSVILLE*    PTSUNNY   70  64  82 SW3       30.21S
RICHLANDS*     CLOUDY    72  60  66 CALM      30.20S
WISE*          FAIR      73  55  53 SW6       30.21S
ABINGDON*      FAIR      76  65  67 E3        30.18S
$$

MDZ021>025-VAZ099-100-271500-
SOUTHERN MARYLAND AND THE DELMARVA PENINSULA

CITY           SKY/WX    TMP DP  RH WIND       PRES   REMARKS
PATUXENT RIVER MOSUNNY   78  65  63 W10       30.09S
BAY BRIDGE APT SUNNY     77  66  69 SW7       30.08S
LEONARDTOWN    SUNNY     77  63  61 SW10      30.12R
DOVER          NOT AVBL
GEORGETOWN     SUNNY     79  65  62 SW12      30.10F
EASTON         SUNNY     77  72  83 SW8       30.13S
CAMBRIDGE      SUNNY     77  66  69 S5        30.10S
SALISBURY      SUNNY     79  64  60 SW12      30.11S
OCEAN CITY     SUNNY     74  65  73 S8        30.12S
WALLOPS ISLAND FAIR      77  66  68 S9        30.13S
ACCOMACK*      FAIR      79  59  50 SW12      30.13S
$$

NCZ012>017-030>032-271500-
NORTH CENTRAL AND EASTERN NORTH CAROLINA

CITY           SKY/WX    TMP DP  RH WIND       PRES   REMARKS
ROANOKE RAPIDS FAIR      77  63  61 SW10      30.16S
RALEIGH        MOSUNNY   77  62  59 SW9       30.16S
ELIZABETH CITY SUNNY     78  62  57 SW9       30.16F
AHOSKIE*       SUNNY     77  65  65 S5        30.16S
EDENTON*       MOSUNNY  N/A N/A N/A S7        30.17F
CURRITUCK*     SUNNY     78  61  57 S6        30.17F
KILL DEVIL HLS SUNNY     80  60  50 S3        30.17S
MANTEO         NOT AVBL
CAPE HATTERAS  SUNNY     79  58  48 S6        30.19F
TARBORO*       FAIR      79  65  62 SW6       30.17S
GOLDSBORO      MOSUNNY   79  64  59 SW9       30.16S
WASHINGTON     SUNNY     77  62  58 S6        30.17F
GREENVILLE     MOSUNNY   79  63  57 SW9       30.18S
NEW BERN       SUNNY     79  61  53 SW5       30.19S
WILMINGTON     SUNNY     79  60  52 VRB3      30.17S
$$

VAZ048-271500-
ELSEWHERE

CITY           SKY/WX    TMP DP  RH WIND       PRES   REMARKS
HARRISBURG PA  MOSUNNY   79  66  64 NW7       30.06S
BALTIMORE      PTSUNNY   81  66  60 SW5       30.07S
ANNAPOLIS      SUNNY     79  68  69 S6        30.08R
ANDREWS AFB    NOT AVBL
PHILADELPHIA   MOSUNNY   79  65  62 SW8       30.06F
HENDERSON NC   SUNNY     74  58  56 SW7       30.16R
GREENSBORO     MOSUNNY   76  61  59 SW10      30.15S
ROCKY MOUNT    SUNNY     78  65  63 SW12      30.16S
$$

VAZ100-271500-
MARINE

STATION/POSITION TIME  TEMP    WIND        PRES    WAVE   SWELL
                       AIR SEA DIR/SP/G            HT/PER HT/PER
                 (UTC) (F)     (DEG/KT/KT) (MB)    (FT/S) (FT/S)
BRANDYWINE LGT   1300   71     230/ 10/ 11 1019.2R
CAPE MAY NJ      1300   71 66  170/  6/ 10 1019.0R
LEWES DE         1300   77 59  240/  7/ 12 1019.1R
15NM E FENWICK I 1350   63 60              1020.0R   3/ 5
OCEAN-CITY-INLET 1300   63 65  210/ 11/ 13 1020.3R
WACHAPREAGUE VA  1300   76 74  210/ 11/ 14 1019.7R
THOMAS POINT MD  1400   70 65  170/ 10/ 10 1019.9S
GOOSES REEF MD   1400   71 66  170/  4/  4 1020.0S   1/ 2
COVE POINT MD    1300   74     270/ 17/ 21 1019.3R
SOLOMONS ISLAND  1300   76 65  260/  4/  8   N/A
BISHOPS HEAD MD  1300   72 71  200/  9/ 12 1019.7R
PINEY POINT MD   1300           30/  4/  5   N/A
POTOMAC MD       1400   72 70  240/  4/  4 1018.5S   1/ 3
CAMBRIDGE MD     1300   75 65  220/  6/ 10 1018.5R
LEWISETTA VA     1300   75 71  240/ 13/ 15 1019.0R
RAPPAHANNOCK LGT 1300          180/ 13/ 14 1020.7R
STINGRAY PT      1400   72 70  210/  4/  6 1020.5R   1
YORK RVR RNG VA  1300   74     240/ 10/ 12 1019.5R
YORKTOWN VA      1300   74 69  230/  8/ 12 1019.8R
JAMESTOWN VA     1400   75 71  230/  8/ 10   N/A     0
DOMINION TERM VA 1300   72     230/  9/ 11 1020.5S
KIPTOPEKE VA     1300      68  180/  6/  8   N/A
CHES BAY BRIDGE  1300   74 68  190/ 13/ 16 1020.3S
CAPE HENRY VA    1300   75     200/ 12/ 17   N/A
WILLOUBY STN VA  1300   74     220/ 13/ 14 1021.3R
CAPE HENRY BUOY  1312      67                N/A     2/ 7
1ST LANDING BUOY 1400   73 68  210/ 10/ 12 1020.7R   1/ 3
CAPE CHARLES BUO 1326      65                N/A     2/ 7
OFFSHORE WE BUOY 1321      65                N/A     2/ 8
64NM E OF VA BCH 1350   64 60  170/  8/ 10 1021.6F   2/ 8   2/ 8
DUCK PIER NC     1300   73 60  200/  8/ 11 1021.1F
44100 DUCK FRF   1324      66                N/A     2/ 7
44056 DUCK FRF   1311      63                N/A     1/ 9
OREGON INLET NC  1300   75 75  170/  6/  7 1022.1R
HATTERAS NC      1300   76 71  140/  4/  5 1021.8F
DIAMOND SHLS NC  1350   77 81   20/  2/  4 1022.3F   2/ 8   2/ 8
CAPE LOOKOUT NC  1400   74      90/  4/  5 1021.8R
$$



USA.gov is the U.S. government's official web portal to all federal, state and local government web resources and services.